DateTimeUTC,F1_A11,F1_S11,BsB_S11,BsG_S11,BsR_S11,BbsB_S11,BbsG_S11,BbsR_S11,BaB_A11,BaG_A11,BaR_A11,Tu_S11,T_S11,Uu_S11,U_S11,P_S11,T1_A11
2021-06-26T22:00:00Z,00000200,20000000,,,,,,,-000.57,-000.26,-000.28,19.1,26.1,04.9,03.2,0670.9,31.2
2021-06-26T22:01:00Z,00000200,20000000,,,,,,,0000.52,0000.38,0000.32,19.1,26.1,04.9,03.2,0670.9,31.2
2021-06-26T22:02:00Z,00000200,20000000,,,,,,,0000.14,0000.08,0000.09,19.1,26.1,04.9,03.2,0670.9,31.2
2021-06-26T22:03:00Z,00000200,60000000,,,,,,,-000.01,0000.39,0000.24,19.1,26.1,04.9,03.2,0670.9,31.2
2021-06-26T22:04:00Z,00000200,40000000,0000.35,-000.15,0000.00,0000.35,0000.28,-000.09,0000.11,-000.11,-000.11,19.3,26.0,04.9,03.3,0671.9,31.2
2021-06-26T22:05:00Z,00000200,00000000,0000.22,0000.08,0000.30,0000.31,-000.07,0000.00,-000.09,-000.12,0000.11,19.4,26.0,04.9,03.3,0672.0,31.2
2021-06-26T22:06:00Z,00000200,00000000,0000.48,-000.26,0000.26,-000.29,0000.12,0000.03,-000.07,0000.07,0000.01,19.5,26.0,04.9,03.3,0672.0,31.2
2021-06-26T22:07:00Z,00000200,00000000,0000.53,0000.29,0000.01,0000.45,0000.15,-000.09,-000.20,-000.18,-000.21,19.5,26.0,04.9,03.3,0672.0,31.2
2021-06-26T22:08:00Z,00000200,00000000,0000.54,-000.20,0000.17,0000.22,0000.14,-000.20,0000.09,-000.09,0000.22,19.5,26.0,04.8,03.2,0672.0,31.2
2021-06-26T22:09:00Z,00000200,00000000,-000.13,0000.22,0000.19,0000.41,0000.05,-000.07,0000.10,-000.04,-000.40,19.5,25.9,04.8,03.2,0672.0,31.2
2021-06-26T22:10:00Z,00000200,00000000,0000.57,0000.11,0000.38,0000.03,-000.01,-000.22,-000.31,-000.31,0000.26,19.4,25.9,04.8,03.3,0672.0,31.2
2021-06-26T22:11:00Z,00000200,00000000,0000.12,-000.30,0000.15,0000.28,-000.19,0000.07,0000.23,0000.38,-000.04,19.4,25.9,04.8,03.3,0672.0,31.2
2021-06-26T22:12:00Z,00000200,00000000,0000.20,-000.19,0000.06,0000.60,0000.19,-000.14,0000.16,0000.22,0000.23,19.4,25.9,04.9,03.3,0672.0,31.2
2021-06-26T22:13:00Z,00000200,00000000,0000.45,0000.09,0000.06,0000.28,0000.14,0000.01,-000.02,-000.53,-000.26,19.4,25.9,05.0,03.4,0672.0,31.2
2021-06-26T22:14:00Z,00000200,00000000,0000.68,0000.56,0000.18,-000.19,-000.29,-000.05,0000.13,0000.35,0000.10,19.4,25.9,05.0,03.4,0672.0,31.2
2021-06-26T22:15:00Z,00000200,00000000,0000.70,-000.11,0000.24,0000.19,0000.05,-000.19,-000.03,0000.10,-000.01,19.4,25.9,05.0,03.4,0672.0,31.2
2021-06-26T22:16:00Z,00000200,00000000,-000.03,0000.16,-000.29,0000.29,-000.12,-000.18,-000.02,-000.17,-000.27,19.3,25.9,05.0,03.4,0672.0,31.2
2021-06-26T22:17:00Z,00000200,00000000,0000.20,-000.03,0000.08,0000.66,-000.03,0000.00,0000.29,0000.10,0000.46,19.3,25.9,05.0,03.4,0672.0,31.2
2021-06-26T22:18:00Z,00000200,00000000,0000.65,-000.29,-000.02,0000.37,-000.16,0000.07,-000.07,0000.09,0000.22,19.4,25.9,05.0,03.4,0672.0,31.2
2021-06-26T22:19:00Z,00000200,00000000,0000.03,-000.16,-000.04,0000.54,-000.01,0000.20,0000.04,0000.11,-000.42,19.5,25.9,05.0,03.4,0672.0,31.2
2021-06-26T22:20:00Z,00000200,00000000,-000.56,-000.23,0000.25,0000.90,-000.04,0000.01,-000.21,-000.02,0000.35,19.5,25.9,05.0,03.4,0672.0,31.2
2021-06-26T22:21:00Z,00000200,00000000,0000.24,0000.42,-000.09,0000.09,0000.07,-000.03,-000.21,-000.16,-000.21,19.5,25.9,04.8,03.3,0672.1,31.2
2021-06-26T22:22:00Z,00000200,00000000,0000.19,-000.21,0000.20,-000.05,0000.05,-000.02,-000.06,-000.24,-000.26,19.5,25.9,04.7,03.1,0672.1,31.2
2021-06-26T22:23:00Z,00000200,00000000,0000.69,0000.03,0000.04,0000.02,-000.04,0000.06,0000.05,-000.00,-000.23,19.5,25.9,04.6,03.1,0672.1,31.2
2021-06-26T22:24:00Z,00000200,00000000,0000.61,-000.17,0000.09,0000.99,0000.24,0000.16,-000.15,-000.07,0000.48,19.5,25.9,04.4,03.0,0672.1,31.2
2021-06-26T22:25:00Z,00000200,00000000,0000.59,-000.18,0000.05,0000.25,-000.34,-000.02,0000.13,-000.02,-000.59,19.4,25.9,04.4,03.0,0672.1,31.2
2021-06-26T22:26:00Z,00000200,00000000,0000.32,0000.02,0000.15,0000.51,0000.16,-000.34,-000.39,-000.06,0000.30,19.4,25.9,04.4,03.0,0672.2,31.2
2021-06-26T22:27:00Z,00000200,00000000,0000.92,-000.18,0000.18,0000.19,0000.27,-000.03,0000.44,0000.18,0000.11,19.4,25.9,04.4,03.0,0672.2,31.2
2021-06-26T22:28:00Z,00000200,00000000,0000.07,-000.02,0000.32,-000.10,-000.03,-000.16,-000.04,0000.07,-000.04,19.4,25.9,04.7,03.2,0672.2,31.2
2021-06-26T22:29:00Z,00000200,00000000,0000.25,0000.08,0000.01,-000.40,-000.11,-000.06,0000.05,-000.37,-000.03,19.4,25.9,04.6,03.1,0672.1,31.2
2021-06-26T22:30:00Z,00000200,00000000,0000.22,-000.14,0000.30,0000.17,-000.07,0000.01,-000.08,0000.50,-000.14,19.3,25.9,04.6,03.1,0672.2,31.2
2021-06-26T22:31:00Z,00000200,00000000,0000.33,0000.20,-000.18,0000.49,-000.03,-000.11,-000.42,-000.36,-000.05,19.3,25.8,04.5,03.0,0672.2,31.2
2021-06-26T22:32:00Z,00000200,00000000,-000.24,0000.09,0000.13,0000.08,-000.10,-000.04,-000.08,-000.35,-000.11,19.3,25.8,04.3,02.9,0672.2,31.2
2021-06-26T22:33:00Z,00000200,00000000,0000.38,-000.00,0000.16,0000.29,-000.24,-000.09,-000.11,-000.11,0000.18,19.3,25.8,04.1,02.8,0672.2,31.2
2021-06-26T22:34:00Z,00000200,00000000,0000.50,-000.13,-000.02,0000.49,-000.04,0000.02,0000.05,-000.21,-000.24,19.3,25.8,04.0,02.7,0672.2,31.2
2021-06-26T22:35:00Z,00000200,00000000,0000.51,-000.07,-000.07,0000.73,-000.26,-000.05,-000.12,0000.21,0000.21,19.2,25.8,04.1,02.7,0672.2,31.2
2021-06-26T22:36:00Z,00000200,00000000,-000.47,0000.28,-000.05,-000.42,-000.27,-000.23,0000.34,0000.29,-000.07,19.2,25.8,04.0,02.7,0672.2,31.2
2021-06-26T22:37:00Z,00000200,00000000,0000.09,0000.13,0000.05,0000.26,-000.15,-000.11,0000.03,-000.10,0000.20,19.2,25.8,04.2,02.8,0672.2,31.2
2021-06-26T22:38:00Z,00000200,00000000,0000.36,-000.10,-000.14,-000.17,0000.18,0000.03,0000.47,0000.43,-000.10,19.2,25.8,04.3,02.9,0672.2,31.2
2021-06-26T22:39:00Z,00000200,00000000,0000.89,0000.03,-000.19,0000.31,0000.14,-000.31,-000.20,-000.26,-000.01,19.2,25.7,04.5,03.0,0672.2,31.2
2021-06-26T22:40:00Z,00000200,00000000,0000.49,0000.00,0000.38,0000.50,-000.02,0000.24,-000.09,-000.10,0000.05,19.1,25.7,04.5,03.0,0672.2,31.2
2021-06-26T22:41:00Z,00000200,00000000,-000.18,-000.24,-000.13,0000.64,0000.04,-000.32,0000.22,0000.35,0000.11,19.1,25.7,04.6,03.1,0672.2,31.2
2021-06-26T22:42:00Z,00000200,00000000,0000.12,-000.04,-000.03,0000.14,0000.08,0000.04,0000.03,-000.11,0000.08,19.1,25.7,04.6,03.1,0672.1,31.2
2021-06-26T22:43:00Z,00000200,00000000,0000.73,0000.09,0000.65,0000.40,0000.15,0000.19,-000.01,0000.13,0000.11,19.1,25.7,04.6,03.1,0672.1,31.2
2021-06-26T22:44:00Z,00000200,00000000,-000.42,0000.13,-000.08,0000.58,-000.26,0000.25,-000.04,0000.16,0000.05,19.1,25.7,04.7,03.1,0672.1,31.2
2021-06-26T22:45:00Z,00000200,00000000,0000.03,-000.13,-000.03,0000.68,0000.02,-000.33,-000.18,-000.23,-000.03,19.1,25.7,04.7,03.1,0672.1,31.2
2021-06-26T22:46:00Z,00000200,00000000,-000.11,-000.54,0000.16,-000.51,0000.20,-000.23,0000.41,-000.16,-000.18,19.0,25.7,04.7,03.2,0672.1,31.2
2021-06-26T22:47:00Z,00000200,00000000,-000.21,-000.13,0000.40,0000.47,-000.03,0000.42,-000.03,0000.48,0000.24,19.0,25.7,04.7,03.1,0672.1,31.2
2021-06-26T22:48:00Z,00000200,00000000,0000.49,0000.07,0000.16,0000.29,0000.09,0000.22,0000.15,0000.09,0000.10,19.1,25.7,04.7,03.1,0672.1,31.2
2021-06-26T22:49:00Z,00000200,00000000,0000.18,0000.04,0000.10,0000.29,-000.01,0000.13,0000.00,0000.38,-000.01,19.2,25.7,04.6,03.1,0672.1,31.2
2021-06-26T22:50:00Z,00000200,00000000,0000.48,0000.11,-000.07,0000.08,-000.17,-000.11,-000.00,-000.05,0000.16,19.3,25.8,04.6,03.1,0672.1,31.2
2021-06-26T22:51:00Z,00000200,00000000,0000.18,-000.21,-000.07,0001.15,-000.13,-000.02,-000.01,-000.21,0000.02,19.4,25.8,04.6,03.1,0672.1,31.2
2021-06-26T22:52:00Z,00000200,00000000,0000.20,0000.39,-000.01,0000.69,-000.14,-000.09,-000.18,-000.27,-000.28,19.4,25.8,04.4,03.0,0672.1,31.2
2021-06-26T22:53:00Z,00000200,00000000,-000.31,-000.25,-000.01,0000.36,0000.13,0000.10,-000.19,0000.08,-000.27,19.4,25.8,04.4,03.0,0672.1,31.2
2021-06-26T22:54:00Z,00000200,00000000,-000.04,-000.13,-000.24,0000.18,0000.13,-000.23,0000.02,-000.26,0000.29,19.4,25.8,04.4,02.9,0672.1,31.2
2021-06-26T22:55:00Z,00000200,00000000,0000.08,-000.32,-000.19,0000.24,-000.09,-000.14,0000.19,0000.24,-000.04,19.4,25.8,04.3,02.9,0672.1,31.2
2021-06-26T22:56:00Z,00000200,00000000,-000.39,-000.06,0000.07,0000.10,-000.21,-000.09,-000.17,0000.08,0000.11,19.3,25.8,04.4,03.0,0672.1,31.2
2021-06-26T22:57:00Z,00000200,40000000,,,,,,,0000.13,-000.03,-000.15,19.4,25.8,04.4,03.0,0672.2,31.2
2021-06-26T22:58:00Z,00000200,60000000,,,,,,,0000.02,-000.25,0000.12,19.1,25.9,04.5,03.0,0671.2,31.2
2021-06-26T22:59:00Z,00000200,20000000,,,,,,,-000.17,0000.29,-000.08,19.0,26.0,04.3,02.8,0671.2,31.2
